Regional Weather Roundup
Issued by NWS

Home | Current Version | Previous Version | Text Only | Print | Product List | Glossary Off
Versions: 1 2 3 4 5 6 7 8 9 10 11 12 13 14 15 16 17 18 19 20 21 22 23 24 25 26 27 28 29 30 31 32 33 34 35 36 37 38 39 40 41 42 43 44 45 46 47 48 49 50

000
ASUS43 KLOT 221800
RWRIL

ILLINOIS REGIONAL WEATHER ROUNDUP
NATIONAL WEATHER SERVICE CHICAGO/ROMEOVILLE IL
100 PM CDT WED OCT 22 2014

NOTE: "FAIR" INDICATES FEW OR NO CLOUDS BELOW 12,000 FEET WITH NO
SIGNIFICANT WEATHER AND/OR OBSTRUCTIONS TO VISIBILITY.

* THESE STATIONS ARE NOT UNDER NWS QUALITY CONTROL. THEY ALSO MAY NOT
  REPORT WEATHER SUCH AS PRECIPITATION OR FOG.

ILZ001-002-007-009-015-016-024-221900-
NORTHWEST ILLINOIS

CITY           SKY/WX    TMP DP  RH WIND       PRES   REMARKS
MOLINE         FAIR      56  40  55 SE9       30.30F
6HR MIN TEMP:  32; 6HR MAX TEMP:  56;

STERLING*      FAIR      57  37  47 SE6G17    30.32F
$$

ILZ003-004-008-010-011-017-018-221900-
NORTH CENTRAL ILLINOIS

CITY           SKY/WX    TMP DP  RH WIND       PRES   REMARKS
ROCKFORD       FAIR      57  38  48 S6        30.35F
6HR MIN TEMP:  32; 6HR MAX TEMP:  57;

$$

ILZ005-006-012>014-019>023-221900-
NORTHEAST ILLINOIS

CITY           SKY/WX    TMP DP  RH WIND       PRES   REMARKS
CHICAGO-OHARE  MOSUNNY   54  38  54 E5        30.34F
6HR MIN TEMP:  39; 6HR MAX TEMP:  54;

CHICAGO-MIDWAY MOSUNNY   54  38  54 E8        30.34F
6HR MIN TEMP:  44; 6HR MAX TEMP:  55;

AURORA         SUNNY     56  39  53 VRB6      30.34F
6HR MIN TEMP:  30; 6HR MAX TEMP:  56;

WAUKEGAN       PTSUNNY   50  38  63 CALM      30.34F
6HR MIN TEMP:  36; 6HR MAX TEMP:  52;

DUPAGE AIRPORT MOSUNNY   57  39  51 SE5       30.32F
6HR MIN TEMP:  34; 6HR MAX TEMP:  57;

WHEELING       PTSUNNY   55  39  54 SE6       30.34F
6HR MIN TEMP:  42; 6HR MAX TEMP:  55;

$$

LMZ740>746-221900-
SOUTHERN LAKE MICHIGAN

STATION/POSITION SKY/WX   TEMP    WIND        PRES    VSBY  WAVE
                          AIR SEA DIR/SP/G                  HT/PER
                          (F)     (DEG/KT/KT) (MB)    (MI)  (FT/S)
SOUTHERN BUOY              46 54  110/  4/  6 1029.3F         1/ 5
WAUKEGAN HARBOR            52     140/  2/  8   N/A
HARRISON CRIB              47     100/  5/  7   N/A
BURNHAM HARBOR             49      90/  6/  7   N/A
CALUMET HARBOR             48      50/  6/  7 1026.9F
MICHIGAN CITY              47      20/  8/ 10   N/A
$$

ILZ025>027-034>036-040-047-049-050-058-095>099-221900-
WEST-CENTRAL ILLINOIS

CITY           SKY/WX    TMP DP  RH WIND       PRES   REMARKS
QUINCY         FAIR      58  42  55 S7        30.28F
$$

ILZ028>032-037-038-041>044-048-051>054-059>061-221900-
CENTRAL ILLINOIS

CITY           SKY/WX    TMP DP  RH WIND       PRES   REMARKS
DECATUR        FAIR      56  39  53 E10       30.33F
PEORIA         FAIR      58  39  49 SE9       30.31F
6HR MIN TEMP:  38; 6HR MAX TEMP:  58;

SPRINGFIELD    FAIR      58  41  53 E7        30.31F
6HR MIN TEMP:  35; 6HR MAX TEMP:  58;

TAYLORVILLE    NOT AVBL
$$

ILZ033-039-045-046-055>057-062-063-221900-
EAST-CENTRAL ILLINOIS

CITY           SKY/WX    TMP DP  RH WIND       PRES   REMARKS
CHAMPAIGN      SUNNY     56  37  49 E9        30.32F
MATTOON        FAIR      56  38  50 E8        30.30F
$$

ILZ079-100>102-221900-
SOUTHWEST ILLINOIS

CITY           SKY/WX    TMP DP  RH WIND       PRES   REMARKS
ALTON          SUNNY     59  43  55 SE8       30.30F
CAHOKIA*       FAIR      60  44  55 E6        30.29F
$$

ILZ064>066-069>071-074>076-080>082-084>086-088>090-092>094-221900-
SOUTH-CENTRAL ILLINOIS

CITY           SKY/WX    TMP DP  RH WIND       PRES   REMARKS
CARBONDALE     FAIR      61  42  49 E7        30.29F
6HR MIN TEMP:  34; 6HR MAX TEMP:  61;

MARION         SUNNY     59  43  55 SE12      30.30F
MT. VERNON     FAIR      57  43  58 NE7       30.31F
$$

ILZ067-068-072-073-078-083-087-091-221900-
SOUTHEAST ILLINOIS

CITY           SKY/WX    TMP DP  RH WIND       PRES   REMARKS
LAWRENCEVILLE  SUNNY     57  40  52 NE5       30.31F
$$

ABBREVIATIONS USED IN REMARKS
   TC - TEMPERATURE IN CELSIUS
  WCI - WIND CHILL INDEX
   HX - HEAT INDEX
  VSB - VISIBILITY
$$




USA.gov is the U.S. government's official web portal to all federal, state and local government web resources and services.